Location: Newark
(47.5833°N, 8.1500°E)
Time: 13:08:47
(UTC+00:00)

Envisat - Visible Passes

Search period start: 23 September 2020 00:00
Search period end: 03 October 2020 00:00
Orbit: 764 x 766 km, 98.1° (Epoch: 23 September)

Date Brightness Start Highest point End Pass type
(mag) Time Alt. Az. Time Alt. Az. Time Alt. Az.
23 Sep 5.5 04:44:33 10° NE 04:48:54 27° E 04:53:12 10° SSE visible
24 Sep 6.3 04:09:15 10° ENE 04:11:40 13° E 04:14:05 10° ESE visible
25 Sep 6.3 18:09:18 10° WSW 18:12:00 14° W 18:14:44 10° NW visible
26 Sep 5.9 04:33:28 10° NE 04:37:26 22° E 04:41:22 10° SE visible
27 Sep 6.7 03:59:18 10° ENE 04:00:08 10° E 04:00:59 10° E visible
28 Sep 6.1 17:57:05 10° SW 18:00:30 18° W 18:03:55 10° NW visible
29 Sep 6.1 04:22:29 10° NE 04:25:56 18° E 04:29:23 10° SE visible
30 Sep 6.8 18:25:39 10° W 18:26:18 10° W 18:26:58 10° WNW visible
01 Oct 5.3 04:47:12 10° NNE 04:51:39 30° E 04:56:04 10° SSE visible
01 Oct 5.9 17:45:06 10° SW 17:49:00 22° W 17:52:57 10° NW visible
02 Oct 6.3 04:11:41 10° NE 04:14:26 14° E 04:17:11 10° ESE visible
